Location: Wells
(51.2093°N, 2.6446°W)
Time: 08:55:04
(UTC+01:00)

SO-50 - Pass Details

Date: 14 March 2026
Orbit: 567 x 673 km, 64.6° (Epoch: 17 April)

Event Time Altitude Azimuth Distance (km) Brightness Sun altitude
Rises 23:01:34 0° 305° (NW) 3,012 ? -38.3°
Reaches altitude 10° 23:04:40 10° 325° (NW) 2,108 ? -38.5°
Enters shadow 23:06:33 16° 348° (NNW) 1,765 ? -38.7°
